Home > Time Zones > World Clock > Weather > U.S.A. > Adak > Past weeks

Flag for U.S.A. Weather past 2 weeks in Adak, Alaska, U.S.A.

45 °F


Feels Like: 38 °F
Forecast: 43 / 49 °F
Wind: 15 mph from West

Location: Adak

Current Time: Oct 8, 2015 at 11:52:09 AM

Latest Report: Oct 8, 2015 at 11:36 AM

Visibility: 10 mi

Pressure: 29.57 "Hg

Humidity: 71%

Dew point: 36 °F

Location of AdakLocation

Historic Weather in Adak — Graph


Adak temperature yesterday

Maximum temperature yesterday: 46 °F (at 12:16 AM)
Minimum temperature yesterday: 41 °F (at 3:56 PM)
Average temperature yesterday: 45 °F

Past Weeks' High & Low Weather Summary

High61 °F (Sep 26, 2:36 PM)82% (Sep 25, 11:36 PM)30.48 "Hg (Sep 25, 11:36 PM)
Low30 °F (Sep 29, 7:36 AM)41% (Sep 29, 3:16 PM)29.30 "Hg (Oct 1, 12:16 AM)
Average50 °F69%29.93 "Hg
* Reported Sep 23 10:56 AM — Oct 8 10:36 AM, Adak, Weather by CustomWeather, © 2015

Note: Actual official high and low records may vary slightly from our data, if they occured in-between our weather recording intervals... More about our weather records


Adak weather history for previous 24 hours

Time TempWeatherWind HumidityBarometerVisibility
10:36 AM
Thu, Oct 8
45 °FCloudy.13 mph71%29.58 "Hg10 mi
10:16 AM45 °FCloudy.13 mph71%29.59 "Hg10 mi
9:56 AM45 °FCloudy.9 mph66%29.59 "Hg10 mi
9:36 AM43 °FCloudy.7 mph66%29.59 "Hg10 mi
9:16 AM43 °FMostly cloudy.10 mph61%29.60 "Hg10 mi
8:56 AM43 °FMostly cloudy.6 mph61%29.60 "Hg10 mi
8:36 AM43 °FMostly cloudy.6 mph57%29.61 "Hg10 mi
8:16 AM43 °FMostly cloudy.7 mph57%29.61 "Hg10 mi
7:56 AM43 °FOvercast.10 mph61%29.61 "Hg10 mi
7:36 AM43 °FOvercast.9 mph66%29.61 "Hg10 mi
7:16 AM43 °FMostly cloudy.5 mph71%29.62 "Hg8 mi
6:56 AM43 °FOvercast.14 mph66%29.61 "Hg10 mi
6:36 AM41 °FPartly cloudy.3 mph70%29.61 "Hg6 mi
6:16 AM43 °FOvercast.10 mph71%29.61 "Hg10 mi
5:56 AM43 °FMostly cloudy.No wind71%29.61 "Hg10 mi
5:36 AM43 °FOvercast.7 mph71%29.62 "Hg10 mi
5:16 AM43 °FMostly cloudy.No wind71%29.61 "Hg10 mi
4:56 AM43 °FMostly cloudy.7 mph71%29.61 "Hg8 mi
4:36 AM43 °FMostly cloudy.7 mph71%29.61 "Hg9 mi
4:16 AM43 °FMostly cloudy.9 mph71%29.62 "Hg8 mi
3:56 AM43 °FOvercast.10 mph71%29.62 "Hg10 mi
3:36 AM41 °FMostly cloudy.10 mph76%29.63 "Hg10 mi
3:16 AM41 °FMostly cloudy.N/A76%29.63 "Hg9 mi
2:56 AM41 °FOvercast.7 mph76%29.63 "Hg10 mi
2:36 AM41 °FPartly cloudy.8 mph70%29.64 "Hg10 mi
2:16 AM41 °FMostly cloudy.No wind70%29.65 "Hg7 mi
1:56 AM43 °FMostly cloudy.12 mph66%29.65 "Hg5 mi
1:36 AM43 °FMostly cloudy.8 mph66%29.65 "Hg10 mi
1:16 AM43 °FMostly cloudy.No wind71%29.65 "Hg7 mi
12:56 AM43 °FOvercast.9 mph71%29.66 "Hg5 mi
12:36 AM43 °FMostly cloudy.No wind71%29.66 "Hg8 mi
12:16 AM43 °FMostly cloudy.9 mph66%29.67 "Hg6 mi
11:56 PM
Wed, Oct 7
45 °FPassing clouds.12 mph57%29.67 "Hg5 mi
11:36 PM45 °FPartly cloudy.12 mph57%29.67 "Hg10 mi
11:16 PM43 °FOvercast.9 mph66%29.68 "Hg10 mi
10:56 PM43 °FPartly cloudy.15 mph61%29.68 "Hg10 mi
10:36 PM45 °FMostly cloudy.22 mph53%29.69 "Hg9 mi
10:16 PM43 °FPartly cloudy.15 mph61%29.69 "Hg10 mi
9:56 PM45 °FPartly cloudy.21 mph53%29.68 "Hg10 mi
9:36 PM45 °FPassing clouds.15 mph53%29.69 "Hg10 mi
9:16 PM45 °FPartly cloudy.17 mph53%29.69 "Hg10 mi
8:56 PM45 °FPassing clouds.12 mph53%29.69 "Hg10 mi
8:36 PM45 °FPassing clouds.17 mph53%29.68 "Hg10 mi
8:16 PM45 °FPassing clouds.17 mph53%29.68 "Hg10 mi
7:56 PM45 °FMore clouds than sun.21 mph57%29.67 "Hg10 mi
7:16 PM45 °FPartly sunny.10 mph57%29.69 "Hg7 mi
6:56 PM45 °FBroken clouds.17 mph53%29.68 "Hg10 mi
6:36 PM45 °FBroken clouds.24 mph57%29.68 "Hg10 mi
6:16 PM46 °FBroken clouds.15 mph50%29.68 "Hg10 mi
5:56 PM46 °FBroken clouds.22 mph53%29.68 "Hg10 mi
5:36 PM46 °FPassing clouds.21 mph53%29.68 "Hg10 mi
5:16 PM45 °FScattered clouds.18 mph57%29.68 "Hg10 mi
4:56 PM46 °FScattered clouds.17 mph53%29.68 "Hg9 mi
4:36 PM46 °FPassing clouds.24 mph53%29.68 "Hg10 mi
4:16 PM45 °FBroken clouds.17 mph61%29.69 "Hg10 mi
3:56 PM41 °FMostly cloudy.13 mph66%29.70 "Hg2 mi
3:36 PM46 °FScattered clouds.18 mph57%29.69 "Hg10 mi
3:16 PM45 °FPartly sunny.20 mph61%29.70 "Hg10 mi
2:56 PM45 °FBroken clouds.22 mph57%29.71 "Hg10 mi
2:36 PM46 °FBroken clouds.20 mph53%29.70 "Hg10 mi
2:16 PM46 °FBroken clouds.21 mph53%29.71 "Hg10 mi
1:56 PM46 °FBroken clouds.16 mph53%29.71 "Hg10 mi
1:36 PM45 °FBroken clouds.13 mph57%29.72 "Hg10 mi
12:56 PM46 °FCloudy.17 mph50%29.72 "Hg10 mi
12:16 PM45 °FMostly cloudy.14 mph57%29.73 "Hg10 mi
11:56 AM45 °FMostly cloudy.8 mph57%29.73 "Hg10 mi
11:36 AM45 °FMostly cloudy.18 mph57%29.73 "Hg4 mi
11:16 AM46 °FMostly cloudy.14 mph53%29.73 "Hg10 mi
Weather by CustomWeather, © 2015

See weather overviewHow to use our weather pages